Location: *
(49.0044°N, 9.5056°E)
Time: 23:48:47
(UTC+00:00)

Cosmos 1420 Rocket - Pass Details

Date: 22 September 2019
Orbit: 754 x 781 km, 74.0° (Epoch: 17 October)

Event Time Altitude Azimuth Distance (km) Brightness Sun altitude
Rises 19:09:40 0° 190° (S) 3,244 7.1 -18.2°
Reaches altitude 10° 19:12:04 10° 187° (S) 2,324 6.3 -18.6°
Maximum altitude 19:17:16 61° 108° (ESE) 885 4.0 -19.4°
Drops below altitude 10° 19:22:31 10° 29° (NNE) 2,347 6.5 -20.2°
Sets 19:24:56 0° 26° (NNE) 3,280 7.3 -20.5°
